Location: Unspecified
(0.0000°N, 0.0000°E)
Time: 02:30:57
(UTC+00:00)

S-56A Canister/Altair - Pass Details

Date: 20 December 2018
Orbit: 633 x 2500 km, 38.9° (Epoch: 15 January)

Event Time Altitude Azimuth Distance (km) Brightness Sun altitude
Rises 10:58:47 0° 296° (WNW) 6,170 11.9 62.6°
Reaches altitude 10° 11:03:10 10° 291° (WNW) 5,143 11.6 63.1°
Maximum altitude 11:16:50 44° 224° (SW) 2,816 11.3 64.6°
Drops below altitude 10° 11:27:34 10° 155° (SSE) 4,059 11.8 65.5°
Sets 11:30:38 0° 148° (SSE) 4,806 11.9 65.7°
